| time (UTC) | temp F | wind direction | speed MPH | gust MPH | rain 1hr in | rain 24hr in | rain mn in | humidity % | barometer mb |
| 20260505101552 | 47 | 293 | 8.0 | 19.0 | 0.00 | 0.07 | 0.07 | 62 | 1001.2 |
| 20260505100532 | 46 | 293 | 6.0 | 16.0 | 0.00 | 0.07 | 0.07 | 72 | 1001.2 |
| 20260505095552 | 45 | 293 | 9.0 | 23.0 | 0.00 | 0.07 | 0.07 | 74 | 1001.2 |
| 20260505094613 | 44 | 270 | 8.0 | 18.0 | 0.00 | 0.07 | 0.07 | 77 | 1001.2 |
| 20260505093532 | 43 | 315 | 8.0 | 17.0 | 0.00 | 0.07 | 0.07 | 77 | 1001.2 |
| 20260505092532 | 43 | 270 | 9.0 | 21.0 | 0.00 | 0.07 | 0.07 | 78 | 1001.3 |
| 20260505091532 | 44 | 270 | 8.0 | 18.0 | 0.00 | 0.07 | 0.07 | 78 | 1000.9 |
| 20260505090530 | 42 | 293 | 7.0 | 16.0 | 0.00 | 0.07 | 0.07 | 78 | 1001.0 |
| 20260505085552 | 42 | 293 | 6.0 | 17.0 | 0.00 | 0.07 | 0.07 | 77 | 1000.9 |
| 20260505084532 | 42 | 293 | 6.0 | 11.0 | 0.00 | 0.07 | 0.07 | 77 | 1000.8 |
| 20260505083532 | 42 | 315 | 6.0 | 13.0 | 0.00 | 0.07 | 0.07 | 73 | 1000.8 |
| 20260505082531 | 42 | 293 | 6.0 | 13.0 | 0.00 | 0.07 | 0.07 | 65 | 1000.6 |
| 20260505081531 | 41 | 315 | 5.0 | 15.0 | 0.00 | 0.07 | 0.07 | 53 | 1000.6 |
| 20260505080531 | 40 | 315 | 5.0 | 10.0 | 0.00 | 0.07 | 0.07 | 54 | 1000.5 |
| 20260505075532 | 41 | 315 | 7.0 | 14.0 | 0.00 | 0.07 | 0.07 | 69 | 1000.4 |
| 20260505074551 | 42 | 293 | 6.0 | 14.0 | 0.00 | 0.07 | 0.07 | 65 | 1000.2 |
| 20260505073532 | 41 | 293 | 3.0 | 8.0 | 0.00 | 0.07 | 0.07 | 50 | 1000.1 |
| 20260505072531 | 40 | 293 | 5.0 | 11.0 | 0.00 | 0.07 | 0.07 | 41 | 1000.0 |
| 20260505071532 | 40 | 293 | 2.0 | 4.0 | 0.00 | 0.07 | 0.07 | 31 | 999.8 |
| 20260505070532 | 40 | 315 | 2.0 | 7.0 | 0.00 | 0.07 | 0.07 | 28 | 999.6 |
| 20260505065532 | 39 | 315 | 2.0 | 9.0 | 0.00 | 0.07 | 0.07 | 27 | 999.6 |
| 20260505064531 | 39 | 315 | 4.0 | 11.0 | 0.00 | 0.07 | 0.07 | 29 | 999.5 |
| 20260505063530 | 39 | 315 | 3.0 | 9.0 | 0.00 | 0.07 | 0.07 | 23 | 999.3 |
| 20260505062532 | 39 | 338 | 2.0 | 9.0 | 0.01 | 0.07 | 0.07 | 13 | 999.3 |
| 20260505061531 | 39 | 293 | 3.0 | 10.0 | 0.01 | 0.07 | 0.07 | 3 | 999.3 |
| 20260505060532 | 38 | 0 | 2.0 | 9.0 | 0.02 | 0.07 | 0.07 | 5 | 999.1 |
| 20260505055531 | 38 | 338 | 3.0 | 11.0 | 0.02 | 0.07 | 0.07 | 5 | 999.0 |
| 20260505054552 | 38 | 338 | 4.0 | 10.0 | 0.02 | 0.07 | 0.07 | 8 | 998.9 |
| 20260505053531 | 38 | 338 | 3.0 | 5.0 | 0.02 | 0.07 | 0.07 | 7 | 998.9 |
| 20260505052531 | 38 | 315 | 5.0 | 10.0 | 0.02 | 0.06 | 0.06 | 7 | 998.7 |
| 20260505051552 | 38 | 0 | 3.0 | 6.0 | 0.02 | 0.06 | 0.06 | 9 | 998.7 |
| 20260505050551 | 38 | 338 | 2.0 | 4.0 | 0.02 | 0.06 | 0.06 | 18 | 998.6 |
| 20260505041531 | 40 | 293 | 2.0 | 5.0 | 0.03 | 0.04 | 0.04 | 7 | 998.3 |
| 20260505040531 | 40 | 293 | 3.0 | 7.0 | 0.04 | 0.04 | 0.04 | 1 | 998.4 |
| 20260505035529 | 40 | 293 | 2.0 | 4.0 | 0.03 | 0.03 | 0.03 | 1 | 998.2 |
| 20260505034532 | 40 | 293 | 2.0 | 5.0 | 0.03 | 0.03 | 0.03 | 1 | 998.2 |
| 20260505033533 | 40 | 293 | 2.0 | 7.0 | 0.02 | 0.02 | 0.02 | 3 | 998.2 |
| 20260505032532 | 40 | 293 | 3.0 | 7.0 | 0.02 | 0.02 | 0.02 | 7 | 998.4 |
| 20260505031532 | 40 | 293 | 3.0 | 8.0 | 0.01 | 0.01 | 0.02 | 15 | 998.4 |
| 20260505030532 | 40 | 293 | 2.0 | 8.0 | 0.00 | 0.00 | 0.00 | 15 | 998.7 |
| 20260505025533 | 40 | 0.0 | 0.0 | 0.00 | 0.00 | 0.00 | 20 | 997.9 | |
| 20260505024531 | 39 | 0.0 | 0.0 | 0.00 | 0.00 | 0.00 | 25 | 998.1 | |
| 20260505023531 | 39 | 0.0 | 0.0 | 0.00 | 0.00 | 0.00 | 28 | 998.3 | |
| 20260505022530 | 40 | 293 | 1.0 | 4.0 | 0.00 | 0.00 | 0.00 | 29 | 998.6 |
| 20260505021550 | 40 | 293 | 1.0 | 3.0 | 0.00 | 0.00 | 0.00 | 34 | 998.3 |
| 20260505020532 | 40 | 0.0 | 0.0 | 0.00 | 0.00 | 0.00 | 36 | 998.2 | |
| 20260505015531 | 40 | 0.0 | 0.0 | 0.00 | 0.00 | 0.00 | 38 | 998.4 | |
| 20260505014530 | 40 | 0.0 | 3.0 | 0.00 | 0.00 | 0.00 | 41 | 998.9 | |
| 20260505013531 | 40 | 293 | 1.0 | 4.0 | 0.00 | 0.00 | 0.00 | 42 | 999.0 |
| 20260505012530 | 41 | 0.0 | 0.0 | 0.00 | 0.00 | 0.00 | 43 | 999.3 | |
| 20260505011531 | 41 | 0.0 | 0.0 | 0.00 | 0.00 | 0.00 | 43 | 999.4 | |
| 20260505010550 | 41 | 293 | 1.0 | 5.0 | 0.00 | 0.00 | 0.00 | 39 | 999.4 |
| 20260505005530 | 41 | 293 | 1.0 | 4.0 | 0.00 | 0.00 | 0.00 | 33 | 999.4 |
| 20260505004531 | 41 | 0.0 | 3.0 | 0.00 | 0.00 | 0.00 | 32 | 999.4 | |
| 20260505003611 | 41 | 0.0 | 2.0 | 0.00 | 0.00 | 0.00 | 39 | 999.2 | |
| 20260505002530 | 42 | 293 | 1.0 | 7.0 | 0.00 | 0.00 | 0.00 | 35 | 999.5 |
| 20260505001532 | 42 | 293 | 2.0 | 8.0 | 0.00 | 0.00 | 0.00 | 31 | 999.4 |
| 20260505000530 | 42 | 293 | 3.0 | 9.0 | 0.00 | 0.00 | 0.00 | 22 | 999.6 |
| 20260504235531 | 43 | 270 | 4.0 | 9.0 | 0.00 | 0.00 | 0.00 | 11 | 999.5 |
| 20260504234611 | 43 | 270 | 5.0 | 8.0 | 0.00 | 0.00 | 0.00 | 1 | 999.5 |
| 20260504233531 | 43 | 293 | 4.0 | 10.0 | 0.00 | 0.00 | 0.00 | 1 | 999.5 |
| 20260504232531 | 43 | 293 | 2.0 | 5.0 | 0.00 | 0.00 | 0.00 | 1 | 999.5 |
| 20260504231529 | 42 | 270 | 2.0 | 6.0 | 0.00 | 0.00 | 0.00 | 1 | 999.4 |
| 20260504230531 | 42 | 270 | 1.0 | 6.0 | 0.00 | 0.00 | 0.00 | 1 | 999.4 |
| 20260504225531 | 42 | 0.0 | 4.0 | 0.00 | 0.00 | 0.00 | 1 | 999.4 | |
| 20260504224531 | 42 | 0.0 | 2.0 | 0.00 | 0.00 | 0.00 | 12 | 999.4 | |
| 20260504223531 | 42 | 0.0 | 0.0 | 0.00 | 0.00 | 0.00 | 21 | 999.3 | |
| 20260504222531 | 43 | 270 | 1.0 | 4.0 | 0.00 | 0.00 | 0.00 | 28 | 999.3 |
| 20260504221531 | 43 | 0.0 | 0.0 | 0.00 | 0.00 | 0.00 | 30 | 999.4 | |
| 20260504220551 | 44 | 0.0 | 0.0 | 0.00 | 0.00 | 0.00 | 33 | 999.5 | |
| 20260504215531 | 44 | 0.0 | 2.0 | 0.00 | 0.00 | 0.00 | 34 | 999.3 | |
| 20260504214531 | 44 | 0.0 | 1.0 | 0.00 | 0.00 | 0.00 | 35 | 999.3 | |
| 20260504213631 | 45 | 0.0 | 4.0 | 0.00 | 0.00 | 0.00 | 36 | 999.5 | |
| 20260504212530 | 45 | 0.0 | 2.0 | 0.00 | 0.00 | 0.00 | 41 | 999.5 | |
| 20260504211532 | 45 | 0.0 | 0.0 | 0.00 | 0.00 | 0.00 | 48 | 999.3 | |
| 20260504210530 | 45 | 270 | 1.0 | 4.0 | 0.00 | 0.00 | 0.00 | 52 | 999.4 |
| 20260504205531 | 45 | 270 | 3.0 | 9.0 | 0.00 | 0.00 | 0.00 | 56 | 999.4 |
| 20260504204530 | 45 | 248 | 1.0 | 5.0 | 0.00 | 0.00 | 0.00 | 60 | 999.5 |
| 20260504203530 | 45 | 248 | 1.0 | 4.0 | 0.00 | 0.00 | 0.00 | 66 | 999.5 |
| 20260504202531 | 45 | 0.0 | 3.0 | 0.00 | 0.00 | 0.00 | 73 | 999.4 | |
| 20260504201531 | 45 | 0.0 | 3.0 | 0.00 | 0.00 | 0.00 | 76 | 999.3 | |
| 20260504200531 | 45 | 0.0 | 6.0 | 0.00 | 0.00 | 0.00 | 76 | 999.3 | |
| 20260504195531 | 45 | 0.0 | 3.0 | 0.00 | 0.00 | 0.00 | 76 | 999.3 | |
| 20260504194550 | 45 | 293 | 1.0 | 7.0 | 0.00 | 0.00 | 0.00 | 77 | 999.3 |
| 20260504193531 | 45 | 293 | 1.0 | 3.0 | 0.00 | 0.00 | 0.00 | 77 | 999.3 |
| 20260504192531 | 45 | 0.0 | 3.0 | 0.00 | 0.00 | 0.00 | 77 | 999.3 | |
| 20260504191532 | 45 | 248 | 1.0 | 6.0 | 0.00 | 0.00 | 0.00 | 77 | 999.2 |
| 20260504190531 | 46 | 0.0 | 0.0 | 0.00 | 0.00 | 0.00 | 77 | 999.2 | |
| 20260504185530 | 46 | 0.0 | 4.0 | 0.00 | 0.00 | 0.00 | 77 | 999.2 | |
| 20260504184531 | 46 | 0.0 | 2.0 | 0.00 | 0.00 | 0.00 | 77 | 999.3 | |
| 20260504183531 | 46 | 0.0 | 3.0 | 0.00 | 0.00 | 0.00 | 76 | 999.3 | |
| 20260504182533 | 47 | 0.0 | 2.0 | 0.00 | 0.00 | 0.00 | 75 | 999.3 | |
| 20260504181531 | 47 | 0.0 | 2.0 | 0.00 | 0.00 | 0.00 | 74 | 999.3 | |
| 20260504180531 | 47 | 270 | 1.0 | 4.0 | 0.00 | 0.00 | 0.00 | 73 | 999.2 |
| 20260504175531 | 48 | 270 | 1.0 | 3.0 | 0.00 | 0.00 | 0.00 | 72 | 999.3 |
| 20260504174531 | 48 | 0.0 | 3.0 | 0.00 | 0.00 | 0.00 | 70 | 999.2 | |
| 20260504173531 | 49 | 270 | 1.0 | 6.0 | 0.00 | 0.00 | 0.00 | 69 | 999.2 |
| 20260504172531 | 49 | 270 | 3.0 | 10.0 | 0.00 | 0.00 | 0.00 | 69 | 999.2 |
| 20260504171531 | 50 | 270 | 2.0 | 9.0 | 0.00 | 0.00 | 0.00 | 68 | 999.2 |
| 20260504170532 | 50 | 248 | 1.0 | 4.0 | 0.00 | 0.00 | 0.00 | 67 | 999.3 |
| 20260504150533 | 54 | 270 | 2.0 | 6.0 | 0.00 | 0.00 | 0.00 | 59 | 999.2 |
| 20260504140533 | 54 | 248 | 2.0 | 9.0 | 0.00 | 0.00 | 0.00 | 57 | 999.7 |
| 20260504130532 | 54 | 180 | 2.0 | 8.0 | 0.00 | 0.00 | 0.00 | 54 | 1000.0 |
| 20260504110531 | 49 | 180 | 2.0 | 7.0 | 0.00 | 0.00 | 0.00 | 55 | 1001.2 |